Probability
6 6 6 4 4 5 6 8 11 13 15 18 17 14 11 11 11 11 10 8 9 10 10 10 8 6 6 7 7 6 5 6 7 8 9 10 10 11 12 13 13 10 9
6 6 5 2 3 6 7 9 11 14 16 18 18 17 14 12 12 12 11 9 8 8 7 7 8 8 8 9 9 8 7 8 9 10 10 10 10 10 11 11 10 8 7
6 5 4 2 3 6 9 10 12 14 15 16 17 18 16 14 13 13 12 10 9 8 7 7 8 9 9 10 11 10 10 11 13 12 11 10 10 9 9 8 7 6 5
5 5 6 5 5 7 9 12 14 14 13 13 15 16 15 12 12 12 12 12 11 10 10 10 10 10 10 11 12 12 14 15 16 16 14 12 12 10 7 6 6 6 6
6 8 9 9 9 8 8 11 14 15 13 13 14 14 12 10 11 12 11 11 12 11 11 11 12 12 11 11 12 13 14 15 16 18 18 17 15 12 8 6 7 8 8
9 10 11 11 11 10 9 11 15 17 17 16 15 13 10 10 12 12 11 10 10 11 12 12 13 15 15 13 13 13 13 13 15 18 20 19 18 16 12 9 9 10 10
10 10 10 11 13 14 15 16 19 21 21 19 17 15 13 13 13 13 12 11 10 12 13 12 14 17 18 17 15 13 12 13 15 18 19 18 17 17 15 12 9 8 7
8 7 7 9 13 16 19 21 24 25 25 24 23 21 20 17 16 14 13 12 12 13 13 14 15 18 19 19 18 16 14 15 16 17 16 16 14 14 14 13 9 5 3
5 5 5 6 10 14 18 20 23 26 28 27 26 26 25 23 20 17 15 14 16 16 14 14 15 16 18 19 19 18 17 18 18 17 16 15 13 12 13 13 10 6 4
5 4 4 4 6 10 14 18 22 26 28 28 27 26 26 26 24 21 19 19 19 17 15 14 14 14 14 15 15 16 17 19 20 18 16 15 14 13 12 12 11 10 9
4 4 3 3 5 8 13 19 24 27 28 28 27 26 26 27 26 24 23 22 18 15 12 12 12 12 11 11 11 12 14 17 19 18 16 15 13 13 13 12 11 11 11
3 3 4 5 7 9 12 18 24 28 29 29 28 27 27 27 27 26 25 22 17 13 11 11 11 10 9 9 10 12 14 16 17 17 17 15 14 15 16 14 13 12 11
6 6 8 10 11 11 12 16 22 27 30 30 30 29 28 27 25 24 25 23 19 15 13 12 11 9 9 11 13 14 15 16 15 16 16 16 17 18 18 17 16 15 12
11 12 14 15 15 15 13 15 20 25 28 30 30 29 27 25 22 22 23 21 19 18 16 14 13 11 11 13 15 15 15 15 14 14 14 14 15 16 16 16 16 16 15
14 15 17 18 19 19 17 16 20 24 27 27 26 25 23 21 20 20 20 19 18 17 16 15 12 11 11 12 13 13 13 13 13 13 12 10 9 9 9 10 12 14 16
14 15 17 19 19 20 19 20 23 27 28 26 24 20 19 18 18 18 18 18 17 16 15 14 10 8 7 7 7 8 9 11 12 12 11 9 7 6 6 6 7 9 11
14 16 18 18 18 19 22 24 27 31 30 26 22 19 17 16 17 16 16 16 15 14 14 12 10 7 5 4 3 4 6 10 13 13 11 10 8 7 7 6 6 7 8
20 20 21 20 19 21 24 26 27 29 28 24 21 19 18 17 15 15 16 15 14 13 12 11 10 10 9 5 2 2 6 11 14 13 12 11 10 9 9 9 9 9 10
27 27 26 24 24 25 26 25 24 24 23 21 20 18 18 17 16 15 15 15 14 13 11 10 12 14 14 9 2 3 8 13 15 15 13 12 11 10 9 9 10 10 11
30 30 29 27 26 26 24 21 20 19 19 19 17 17 16 16 15 13 13 13 13 12 10 10 12 16 16 10 3 4 11 16 17 16 14 11 9 8 7 8 9 10 10
28 29 29 27 25 22 20 18 16 15 15 16 16 16 15 13 11 11 12 12 12 12 11 11 12 14 13 9 3 4 9 14 16 16 13 11 7 5 4 5 7 8 8
24 25 25 24 22 20 18 17 15 13 13 15 16 16 14 11 10 11 13 12 11 11 11 11 12 11 11 9 5 3 3 7 12 13 11 8 5 2 1 2 3 4 4
21 20 20 21 20 19 17 17 16 16 16 16 15 14 13 11 11 13 14 11 9 9 10 11 11 11 10 10 7 3 1 2 5 8 7 4 2 1 0 1 1 1 3
18 18 18 20 21 20 18 17 17 19 19 18 16 15 14 13 14 15 14 11 9 10 10 11 12 11 11 11 10 8 4 2 2 4 4 4 2 1 1 2 1 2 4
16 18 20 22 21 20 18 17 18 19 20 21 19 16 15 15 15 15 13 10 9 9 10 11 10 9 9 10 10 9 8 5 3 3 5 6 5 5 5 5 5 5 5
16 18 22 24 22 20 19 18 18 19 20 22 20 16 14 15 15 15 12 8 7 6 7 8 7 6 6 7 8 8 8 6 3 4 6 7 8 8 9 9 9 7 6
Wind_Speed
5 6 6 6 5 5 5 5 5 4 3 3 3 3 3 2 2 2 2 3 3 3 3 3 2 3 3 3 4 4 4 4 2 3 2 3 4 3 3 3 3 3 3
5 6 6 6 6 6 6 6 5 5 5 3 3 2 2 2 2 2 2 3 3 3 3 3 3 3 3 4 4 4 4 3 3 3 3 3 3 4 3 3 3 3 3
6 7 7 7 7 7 7 5 5 5 5 4 3 3 3 2 2 2 2 2 3 3 3 3 3 3 4 3 4 5 5 4 3 3 3 2 1 0 2 3 3 2 2
6 6 7 7 8 7 7 6 6 5 5 5 4 4 2 2 2 1 1 2 2 2 2 2 3 3 3 3 4 4 4 4 3 3 3 3 2 2 2 3 3 3 3
6 6 6 7 8 8 7 7 7 6 6 5 5 4 3 2 2 1 1 1 1 1 1 1 2 2 3 3 3 2 3 3 3 3 2 3 3 4 3 2 2 3 3
5 5 5 6 7 8 7 7 7 7 7 6 5 5 4 3 2 2 1 2 2 1 1 2 2 2 2 2 3 3 4 4 4 3 3 3 3 3 4 4 3 3 2
5 5 5 5 6 8 8 7 8 7 7 6 5 5 5 4 4 3 2 2 1 1 1 1 1 2 1 2 3 3 3 3 4 4 4 3 4 3 4 4 4 4 3
5 5 5 5 6 7 8 8 8 7 7 7 6 5 5 4 3 3 3 2 1 1 0 1 1 1 2 2 2 2 3 2 3 3 3 3 4 4 4 4 4 4 4
5 5 5 5 6 7 7 8 8 8 7 7 6 5 4 3 3 3 3 2 2 1 1 1 1 1 1 2 2 2 2 2 3 3 3 4 3 4 4 4 5 5 5
5 4 4 5 5 6 6 7 8 8 7 7 6 5 4 4 3 2 2 2 2 1 2 2 1 1 1 1 2 2 1 2 2 2 3 3 3 3 3 4 4 4 5
5 4 4 5 5 6 6 6 6 7 6 6 5 5 4 4 3 3 2 2 2 2 3 2 2 2 2 2 2 3 2 3 3 3 3 3 4 3 3 3 3 4 4
4 4 4 5 5 5 6 6 6 6 6 5 5 5 4 3 3 2 2 2 2 3 2 2 2 3 2 3 3 3 3 3 3 3 3 3 3 3 3 3 4 4 4
3 3 4 4 4 4 4 5 5 5 5 5 5 4 3 3 2 2 2 2 2 3 3 3 3 3 3 3 3 4 3 3 3 3 3 3 3 3 3 4 4 4 4
3 3 3 4 4 4 4 4 4 5 5 4 4 3 2 2 2 1 1 2 2 3 3 3 3 3 3 3 3 3 3 3 3 3 3 3 3 3 4 4 4 4 4
4 4 4 4 4 4 4 4 4 4 4 4 3 3 2 2 1 0 0 1 2 2 3 3 3 3 3 2 2 3 3 3 4 4 4 3 3 3 4 4 3 4 4
5 5 4 4 5 5 4 4 4 4 4 4 3 3 2 1 1 1 0 0 1 1 2 3 3 3 2 2 2 4 4 4 4 4 4 4 4 4 4 4 4 4 5
4 4 4 4 4 5 5 4 4 4 4 4 4 3 2 2 1 1 1 1 1 1 1 2 2 2 0 1 1 4 6 5 4 4 5 5 3 3 4 4 6 6 7
3 3 3 4 4 5 5 4 5 4 4 4 3 3 3 2 2 1 1 1 1 1 1 2 2 2 1 1 2 5 7 5 5 5 5 5 4 3 3 5 4 5 5
2 3 3 4 3 4 5 4 4 4 4 3 3 3 3 2 2 1 1 1 2 2 2 2 2 2 1 1 1 4 6 5 5 5 5 5 5 1 3 5 5 5 5
3 3 3 4 4 4 4 4 4 4 3 3 3 3 2 2 2 1 1 1 2 2 3 2 2 2 2 2 1 4 5 4 5 4 5 4 4 2 3 5 5 6 5
4 4 3 3 3 3 3 3 4 3 3 3 3 2 2 2 2 2 2 2 2 2 3 2 2 2 2 1 2 2 4 4 5 4 4 2 3 3 5 6 6 5 6
3 3 3 3 2 3 3 3 2 2 3 3 3 3 2 3 2 2 2 3 3 3 3 3 3 2 2 1 2 3 5 6 5 4 4 1 1 3 5 6 5 6 6
2 2 2 2 2 2 2 3 2 2 3 3 3 3 3 3 2 3 3 4 4 4 3 3 3 2 2 1 3 5 6 6 5 4 3 3 3 5 5 6 6 6 6
2 1 1 1 1 1 2 2 2 2 3 4 4 4 4 3 3 3 3 3 3 3 3 3 3 3 2 2 2 2 2 4 4 3 2 4 6 6 5 4 5 5 5
1 0 0 0 0 0 1 1 2 2 3 4 4 4 3 3 3 3 2 3 2 2 3 3 4 4 3 2 3 4 4 4 3 4 4 3 3 3 3 3 3 4 4
1 0 0 1 1 1 1 1 1 2 3 3 4 3 3 3 3 3 3 2 3 3 4 3 4 3 2 2 3 4 5 5 4 4 4 3 3 3 3 3 3 4 4
Wind_Direction
179 175 182 186 184 181 183 190 196 185 196 199 211 208 213 219 214 215 207 221 231 223 233 250 220 238 233 237 229 227 216 225 227 239 225 213 212 207 206 215 216 202 212
185 185 187 190 192 188 192 195 196 192 199 197 217 224 233 233 228 240 204 225 229 231 222 236 238 230 233 226 226 224 241 227 214 246 240 221 196 200 201 198 205 207 208
198 193 195 200 202 199 197 200 201 198 201 202 207 208 203 223 211 213 201 219 230 231 253 233 244 239 241 223 223 222 229 233 220 231 260 264 253 189 185 211 212 215 227
196 193 198 203 208 203 195 198 197 199 199 204 215 221 223 234 246 242 204 197 209 220 226 230 230 244 249 237 236 223 233 238 230 210 240 272 305 271 227 204 200 212 228
196 195 201 203 207 201 195 190 188 193 196 203 206 219 229 236 238 236 206 222 196 220 236 235 237 235 247 247 258 250 246 238 246 238 229 231 233 243 252 249 245 232 226
196 194 197 198 200 198 195 188 184 190 194 198 201 210 221 238 253 249 240 224 196 199 209 224 231 241 250 243 244 246 236 247 249 250 242 232 232 236 242 251 248 248 237
191 191 192 194 197 197 196 190 184 186 190 193 198 203 212 220 229 243 227 247 238 206 188 242 237 256 256 252 244 238 254 247 246 246 249 248 246 251 256 261 266 265 251
190 191 189 189 192 194 195 190 186 188 190 193 196 199 207 221 221 224 246 230 257 284 331 232 232 237 248 253 242 238 236 237 246 254 262 261 255 252 252 256 263 264 253
191 192 189 190 188 191 193 190 188 190 193 196 192 194 201 222 235 228 229 231 238 243 234 245 240 234 236 255 252 241 250 245 245 250 248 260 263 261 261 258 260 261 262
190 188 186 187 185 182 183 187 190 194 196 196 201 191 196 202 217 238 242 258 254 265 262 252 250 244 245 256 264 243 240 249 253 256 261 263 265 266 263 264 256 251 257
193 184 178 172 176 176 173 178 183 188 190 193 191 192 189 189 198 212 220 227 247 245 245 245 250 254 253 251 248 255 244 245 250 251 245 255 270 270 261 256 251 245 242
199 182 173 169 173 173 171 169 175 181 182 185 190 187 183 189 200 214 220 219 227 237 233 236 246 253 256 256 252 255 253 247 245 250 255 258 258 264 267 261 250 245 241
195 184 174 175 177 175 176 172 176 179 178 180 187 183 182 189 208 222 229 228 227 233 236 233 243 256 260 257 257 260 266 264 257 255 256 265 266 259 265 260 251 248 243
187 184 174 176 179 177 176 181 179 171 172 177 182 176 175 185 204 216 239 244 242 243 251 251 249 253 258 262 262 258 261 268 267 261 257 259 263 273 278 260 247 247 247
188 184 183 179 174 171 174 179 175 170 169 169 175 172 170 171 169 116 327 288 277 260 251 250 249 251 248 264 284 275 261 262 266 263 262 261 266 297 292 288 270 246 238
194 184 178 175 172 171 175 168 166 165 166 166 171 166 171 166 161 176 190 229 275 280 253 242 249 257 278 45 331 289 276 267 264 266 266 256 234 239 243 266 271 268 250
192 188 177 171 171 169 166 165 162 160 163 165 165 163 174 172 173 200 186 214 251 280 289 277 265 263 299 68 286 282 276 268 269 269 268 271 272 264 262 238 231 241 248
183 183 172 163 168 155 150 153 151 154 158 161 163 164 175 175 175 192 206 223 237 254 269 283 288 274 255 151 260 275 261 267 265 264 264 268 269 272 286 274 263 256 245
163 172 164 154 149 142 144 150 146 148 155 159 164 166 175 176 180 191 227 246 258 262 261 260 272 272 255 122 261 277 265 260 261 260 258 262 261 260 276 266 264 267 265
134 142 143 139 137 136 150 158 155 158 168 172 171 169 176 189 207 221 252 264 263 266 273 279 280 281 294 98 83 289 272 271 269 257 247 231 250 247 246 256 260 261 269
114 117 118 121 122 137 151 159 160 166 178 182 181 177 189 208 216 232 250 259 264 279 281 279 270 264 268 173 165 271 286 289 278 273 264 243 180 235 242 253 258 264 278
114 117 114 104 113 138 151 163 172 182 180 180 188 191 209 237 220 221 234 246 253 244 245 251 260 254 232 228 194 227 258 291 283 279 282 303 149 248 251 251 260 265 266
110 117 118 113 112 133 165 179 182 201 199 194 193 197 210 228 233 234 231 232 234 247 256 260 269 275 272 206 197 215 234 255 270 287 310 299 260 248 244 235 243 248 249
121 115 126 127 118 151 185 193 194 199 208 210 208 210 217 223 220 239 239 239 249 259 265 270 275 278 269 286 295 279 254 239 252 278 269 236 233 238 256 254 232 239 252
132 106 83 191 245 249 227 226 210 210 219 222 223 227 225 221 224 226 245 252 252 278 277 280 283 289 289 331 331 301 298 299 301 296 277 275 272 261 258 258 257 256 252
199 210 290 299 301 276 261 248 232 226 233 236 235 239 236 229 236 232 215 200 229 197 221 255 279 282 306 301 280 279 282 279 275 266 265 268 273 275 275 272 262 255 257